Location: Durkee
(44.1305°N, 107.9134°W)
Time: 22:42:37
(UTC+00:00)

X-37B - Pass Details

Date: 31 January 2022
Orbit: 329 x 342 km, 45.0° (Epoch: 18 May)

Event Time Altitude Azimuth Distance (km) Brightness Sun altitude
Rises 02:11:32 0° 266° (W) 2,116 5.9 -20.3°
Reaches altitude 10° 02:13:33 10° 268° (W) 1,277 4.4 -20.6°
Enters shadow 02:15:38 43° 280° (W) 486 1.5 -21.0°
